Home   Weather   Austin   Past weeks

Flag for USA Past Weather in Austin, Texas, USA — Yesterday and Last 2 Weeks

Now
90 °F

Sunny.


Feels Like: 94 °F
Forecast: 79 / 100 °F
Wind: 9 mph from Southwest

Location: Camp Mabry / Austin City

Current Time: Jul 26, 2017 at 12:02:31 pm

Latest Report: Jul 26, 2017 at 10:51 am


Visibility: 10 mi

Pressure: 30.08 "Hg

Humidity: 48%

Dew Point: 68 °F

Location of AustinLocation

Past Weather in Austin — Graph

°F

Austin Temperature Yesterday

Maximum temperature yesterday: 102 °F (at 3:51 pm)
Minimum temperature yesterday: 78 °F (at 6:51 am)
Average temperature yesterday: 87 °F

High & Low Weather Summary for the Past Weeks

 TemperatureHumidityPressure
High103 °F (Jul 20, 4:51 pm)100% (Jul 15, 9:51 pm)30.17 "Hg (Jul 15, 9:51 pm)
Low68 °F (Jul 16, 3:51 am)25% (Jul 24, 3:39 pm)29.81 "Hg (Jul 22, 6:51 pm)
Average86 °F61%29.98 "Hg
* Reported Jul 11 10:51 am — Jul 26 10:51 am, Austin. Weather by CustomWeather, © 2017

Note: Actual official high and low records may vary slightly from our data, if they occured in-between our weather recording intervals... More about our weather records

Advertising

Austin Weather History for the Previous 24 Hours

Scroll right to see more
 ConditionsComfort  
Time TempWeatherWind HumidityBarometerVisibility
10:51 am
Wed, Jul 26
90 °FSunny.9 mph48%30.08 "Hg10 mi
9:51 am87 °FSunny.8 mph57%30.09 "Hg10 mi
8:51 am83 °FSunny.6 mph68%30.09 "Hg10 mi
8:06 am80 °FScattered clouds.6 mph81%30.13 "Hg10 mi
7:51 am79 °FPartly sunny.6 mph84%30.07 "Hg10 mi
6:51 am79 °FPartly sunny.6 mph88%30.06 "Hg10 mi
6:23 am79 °FPassing clouds.5 mph88%30.09 "Hg10 mi
5:51 am79 °FClear.3 mph88%30.03 "Hg10 mi
4:51 am79 °FClear.No wind88%30.02 "Hg10 mi
4:34 am79 °FPassing clouds.3 mph88%30.07 "Hg10 mi
4:17 am79 °FPassing clouds.No wind88%30.06 "Hg10 mi
3:51 am80 °FPassing clouds.No wind85%30.01 "Hg10 mi
2:51 am81 °FOvercast.5 mph79%30.02 "Hg10 mi
2:02 am81 °FPassing clouds.6 mph79%30.09 "Hg10 mi
12:51 am83 °FClear.8 mph68%30.05 "Hg10 mi
11:51 pm
Tue, Jul 25
85 °FClear.8 mph61%30.04 "Hg10 mi
10:51 pm86 °FClear.12 mph57%30.04 "Hg10 mi
9:51 pm88 °FClear.8 mph52%30.01 "Hg10 mi
8:51 pm91 °FClear.10 mph47%29.99 "Hg10 mi
7:51 pm94 °FSunny.8 mph40%29.97 "Hg10 mi
6:51 pm97 °FSunny.9 mph33%29.95 "Hg10 mi
5:51 pm99 °FSunny.6 mph32%29.95 "Hg10 mi
4:51 pm99 °FPassing clouds.6 mph33%29.96 "Hg10 mi
3:51 pm102 °FPassing clouds.5 mph31%29.98 "Hg10 mi
2:51 pm99 °FPassing clouds.N/A35%30.01 "Hg10 mi
1:51 pm98 °FPassing clouds.6 mph38%30.02 "Hg10 mi
12:51 pm94 °FPassing clouds.6 mph44%30.04 "Hg10 mi
Weather by CustomWeather, © 2017

See weather overviewHow to use our weather pages